Home > Weather > Nea Smyrni > Past weeks

Flag for Greece Weather for the Past 2 Weeks in Nea Smyrni, Greece

Now
61 °F

Passing clouds.


Feels Like: 61 °F
Forecast: 54 / 71 °F
Wind: 14 mph from Southwest

Location: Eleftherios Venizelos International Airport

Current Time: Feb 15, 2016 at 12:10:37 AM

Latest Report: Feb 14, 2016 at 10:50 PM


Visibility: N/A

Pressure: 29.89 "Hg

Humidity: 72%

Dew point: 52 °F

Location of Nea SmyrniLocation

Historic Weather in Nea Smyrni — Graph

°F

Nea Smyrni Temperature Yesterday

Maximum temperature yesterday: 66 °F (at 1:20 PM)
Minimum temperature yesterday: 57 °F (at 12:20 AM)
Average temperature yesterday: 61 °F

High & Low Weather Summary for the Past Weeks

 TemperatureHumidityPressure
High68 °F (Feb 2, 1:20 PM)94% (Feb 4, 3:20 AM)30.42 "Hg (Feb 4, 3:20 AM)
Low32 °F (Feb 8, 3:20 AM)32% (Feb 11, 1:20 PM)29.71 "Hg (Feb 13, 2:20 PM)
Average53 °F72%30.08 "Hg
* Reported Jan 30 10:20 PM — Feb 14 10:50 PM, Nea Smyrni, Weather by CustomWeather, © 2016

Note: Actual official high and low records may vary slightly from our data, if they occured in-between our weather recording intervals... More about our weather records

Advertising

Nea Smyrni Weather History for the Previous 24 Hours

 ConditionsComfort  
Time TempWeatherWind HumidityBarometerVisibility
10:50 PM
Sun, Feb 14
61 °FPassing clouds.14 mph72%29.89 "HgN/A
10:20 PM63 °FPassing clouds.14 mph68%29.89 "HgN/A
9:50 PM63 °FPassing clouds.8 mph68%29.89 "HgN/A
9:20 PM61 °FPassing clouds.13 mph72%29.89 "HgN/A
8:50 PM61 °FPassing clouds.12 mph72%29.86 "HgN/A
8:20 PM61 °FPassing clouds.9 mph77%29.86 "HgN/A
7:50 PM61 °FPassing clouds.9 mph77%29.86 "HgN/A
7:20 PM61 °FPassing clouds.7 mph77%29.86 "HgN/A
6:50 PM61 °FPassing clouds.14 mph77%29.86 "HgN/A
6:20 PM61 °FPassing clouds.14 mph77%29.83 "HgN/A
5:50 PM61 °FPassing clouds.15 mph77%29.83 "HgN/A
5:20 PM63 °FPassing clouds.12 mph73%29.83 "HgN/A
4:50 PM63 °FPassing clouds.15 mph77%29.83 "HgN/A
4:20 PM63 °FScattered clouds.12 mph77%29.83 "HgN/A
3:50 PM64 °FScattered clouds.15 mph73%29.83 "HgN/A
3:20 PM64 °FScattered clouds.15 mph73%29.83 "HgN/A
2:50 PM64 °FScattered clouds.17 mph73%29.83 "HgN/A
2:20 PM66 °FScattered clouds.15 mph68%29.83 "HgN/A
1:50 PM66 °FScattered clouds.14 mph68%29.83 "HgN/A
1:20 PM66 °FScattered clouds.10 mph68%29.83 "HgN/A
12:50 PM64 °FScattered clouds.15 mph73%29.83 "HgN/A
12:20 PM64 °FScattered clouds.16 mph73%29.83 "HgN/A
11:50 AM63 °FScattered clouds.16 mph77%29.83 "HgN/A
11:20 AM64 °FScattered clouds.16 mph73%29.83 "HgN/A
10:50 AM63 °FScattered clouds.12 mph77%29.83 "HgN/A
10:20 AM61 °FScattered clouds.8 mph83%29.83 "HgN/A
9:50 AM61 °FScattered clouds.7 mph83%29.83 "HgN/A
9:20 AM59 °FScattered clouds.6 mph88%29.83 "HgN/A
8:50 AM59 °FScattered clouds.10 mph82%29.83 "HgN/A
8:20 AM59 °FScattered clouds.6 mph82%29.83 "HgN/A
7:50 AM57 °FScattered clouds.3 mph88%29.80 "HgN/A
7:20 AM57 °FPassing clouds.9 mph82%29.80 "HgN/A
6:50 AM57 °FPassing clouds.7 mph88%29.80 "HgN/A
6:20 AM57 °FPassing clouds.7 mph88%29.80 "HgN/A
5:50 AM57 °FPassing clouds.8 mph88%29.80 "HgN/A
5:20 AM57 °FPassing clouds.9 mph88%29.80 "HgN/A
4:50 AM57 °FPassing clouds.8 mph82%29.77 "HgN/A
4:20 AM59 °FPassing clouds.6 mph82%29.77 "HgN/A
3:50 AM57 °FClear.8 mph82%29.77 "Hg10 mi
3:20 AM57 °FClear.7 mph82%29.77 "Hg10 mi
2:50 AM57 °FClear.8 mph82%29.80 "Hg10 mi
2:20 AM57 °FClear.10 mph82%29.80 "Hg10 mi
1:50 AM57 °FClear.7 mph82%29.80 "Hg10 mi
1:20 AM57 °FClear.8 mph82%29.80 "Hg10 mi
12:50 AM57 °FClear.7 mph82%29.80 "Hg10 mi
12:20 AM57 °FClear.10 mph82%29.77 "Hg10 mi
Weather by CustomWeather, © 2016

See weather overviewHow to use our weather pages